STARLINK-34628, 64864

Orbit data source: Space-Track

STARLINK-34628, 64864 is a payload satellite owned by SpaceX/Seattle (US) in SSO that was launched on Sat, 19 Jul 2025 UTC via an FALCON 9 launch vehicle from the Air Force Western Test Range (AFWTR). Payload-class satellites include a variety of spacecraft equipped with specific instruments for various scientific and technological missions. These include communications satellites like Starlink; space stations such as the ISS; scientific satellites like the Hubble; Earth observation satellites from companies like Planet Labs, Umbra, and HawkEye 360; GPS; miniature CubeSats for education and research; and military/defense satellites.

Loading next visibility...
Identifier
64864, 2025-152Y
Orbit
SSO
Country
Flag of USUS
Related business
Manufacturer
SpaceX/Seattle
Mission
Operational Commercial Communications
Bus & Motor
STARLINK V2MO, Unknown motor
Mass
575 kg wet, ~530 kg dry
Launch date (UTC)
2025-07-19 (9 months ago)
Launch vehicle
FALCON 9
Launch site
Air Force Western Test Range (AFWTR)
Object type
Payload
Rocket body
Debris
Shape & HBR
Box + 2 Pan, 17.7 m
Radar Cross Section
36.964 m², Large (>1 m²)

Expand to show TLE details & history
Last TLE update: 19 hours ago

TLE from 19 hours ago
0 STARLINK-34628
1 64864U 25152Y   26094.56981527  .00003456  00000-0  24355-3 0  9997
2 64864  97.6005 311.0479 0002162  81.1285 279.0186 15.05654570 39315
Epoch: 2026-04-04T13:40Z
TLE epoch observation values (Epoch: 2026-04-04T13:40:32.039Z)
Latitude
-0.00006°
Longitude
-86.97329°
Altitude
552.328 km
Speed
7.586 km/s
True Right ascension
20h 44m 11s
True Declination
0° 00' 00"
Sunlit
Object was in daylight at epoch
Visualization orbit readout
Latitude
Unknown
Longitude
Unknown
Altitude
Unknown
Speed
Unknown
Apparent Right ascension
Unknown
Apparent Declination
Unknown
Sunlit
N/A
Visualization observer readout
Local Sidereal Time
14:32:15
Azimuth
Unknown
Elevation
Unknown
Doppler factor
Unknown
Orbital elements
Apogee altitude
547.988 km
Perigee altitude
544.993 km
Semi-major axis
6,924.628 km
Eccentricity
0.00022
Inclination
97.6005°
RAAN
311.0479°
Arg. of periapsis
81.1285°
True anomaly
278.99413°
Mean anomaly
279.0186°
Eccentric anomaly
279.00637°
Mean motion
3.76659 °/min
Orbital period
95.58 mins
BSTAR
0.00024355
Loading maneuver chart data...
Computing Atmospheric mass density...
Loading historical data...
Loading historical data...
Loading historical data...
Loading historical data...
Loading historical data...
Loading historical data...
Loading historical data...

Documentation

Showing up to 5 results
|